Weather History for Trinity Center, CA

Change the Weather History Date:

Monday, December 9, 2013

  Actual Average (KMHS) Record (KMHS)
Temperature  
Mean Temperature 20 °F 35 °F  
Max Temperature 33 °F 45 °F 63 °F (1975)
Min Temperature 6 °F 26 °F -5 °F (1972)
Degree Days  
Heating Degree Days 46 30  
Month to date heating degree days 262  
Since 1 July heating degree days 1659  
Cooling Degree Days 0 0  
Month to date cooling degree days 0  
Year to date cooling degree days 288  
Moisture  
Dew Point 16 °F    
Average Humidity 85    
Maximum Humidity 100    
Minimum Humidity 59    
Precipitation  
Precipitation 0.00 in 0.24 in 4.15 in (1996)
Month to date precipitation 2.09  
Year to date precipitation 37.45  
Sea Level Pressure  
Sea Level Pressure 30.43 in    
Wind  
Wind Speed 2 mph (West)    
Max Wind Speed 5 mph    
Max Gust Speed -    
Visibility 7 miles    
Events      
T = Trace of Precipitation, MM = Missing Value Source: NWS Daily Summary

Daily Weather History Graph

Daily Weather History Graph

Search for Another Location

Airport:

Trip Planner

Search our weather history database for the weather conditions in past years. The results will help you decide how hot, cold, wet, or windy it might be!

Date:

Astronomy

Dec. 09, 2013 Rise Set
Actual Time 7:24 AM PST 4:42 PM PST
Civil Twilight 6:53 AM PST 5:13 PM PST
Nautical Twilight 6:18 AM PST 5:47 PM PST
Astronomical Twilight 5:45 AM PST 6:21 PM PST
Moon 12:17 PM PST (12/9) No Moon Set
Length of Visible Light 10h 20m
Length of Day
9h 18m
First Quarter, 52% of the Moon is Illuminated
Dec 9
First Quarter
Dec 17
Full
Dec 25
Last Quarter
Jan 1
New
Jan 7
First Quarter

Hourly Weather History & Observations

Time (PST) Temp. Windchill Dew Point Humidity Pressure Visibility Wind Dir Wind Speed Gust Speed Precip Events Conditions
12:10 AM 15.8 °F 10.2 °F 12.2 °F 86% 30.41 in 9.0 mi West 3.5 mph - N/A   Overcast
12:30 AM 15.8 °F 10.2 °F 12.2 °F 86% 30.41 in 10.0 mi West 3.5 mph - N/A   Overcast
12:50 AM 15.8 °F 10.2 °F 12.2 °F 86% 30.42 in 10.0 mi WNW 3.5 mph - N/A   Overcast
1:10 AM 14.0 °F 6.5 °F 8.6 °F 79% 30.41 in 10.0 mi NW 4.6 mph - N/A   Mostly Cloudy
1:30 AM 12.2 °F 6.1 °F 8.6 °F 85% 30.42 in 8.0 mi NW 3.5 mph - N/A   Mostly Cloudy
1:50 AM 10.4 °F 4.0 °F 8.6 °F 92% 30.42 in 10.0 mi West 3.5 mph - N/A   Mostly Cloudy
2:10 AM 12.2 °F 6.1 °F 8.6 °F 85% 30.43 in 10.0 mi West 3.5 mph - N/A   Overcast
2:30 AM 10.4 °F 2.2 °F 6.8 °F 85% 30.43 in 10.0 mi WNW 4.6 mph - N/A   Overcast
2:50 AM 12.2 °F 6.1 °F 8.6 °F 85% 30.44 in 10.0 mi WNW 3.5 mph - N/A   Overcast
3:10 AM 8.6 °F - 5.0 °F 85% 30.44 in 10.0 mi Calm Calm - N/A   Scattered Clouds
3:30 AM 8.6 °F 2.0 °F 5.0 °F 85% 30.43 in 10.0 mi WNW 3.5 mph - N/A   Clear
3:50 AM 8.6 °F 2.0 °F 6.8 °F 92% 30.44 in 10.0 mi West 3.5 mph - N/A   Scattered Clouds
4:10 AM 8.6 °F - 5.0 °F 85% 30.44 in 10.0 mi Calm Calm - N/A   Mostly Cloudy
4:30 AM 8.6 °F - 5.0 °F 85% 30.44 in 10.0 mi Calm Calm - N/A   Overcast
4:50 AM 10.4 °F 4.0 °F 6.8 °F 85% 30.44 in 10.0 mi West 3.5 mph - N/A   Overcast
5:10 AM 8.6 °F - 5.0 °F 85% 30.45 in 10.0 mi Calm Calm - N/A   Overcast
5:30 AM 10.4 °F 4.0 °F 6.8 °F 85% 30.45 in 10.0 mi West 3.5 mph - N/A   Overcast
5:50 AM 10.4 °F 4.0 °F 6.8 °F 85% 30.46 in 10.0 mi WNW 3.5 mph - N/A   Overcast
6:10 AM 10.4 °F - 6.8 °F 85% 30.46 in 10.0 mi Calm Calm - N/A   Overcast
6:30 AM 10.4 °F - 6.8 °F 85% 30.47 in 10.0 mi Calm Calm - N/A   Overcast
6:50 AM 8.6 °F 0.1 °F 5.0 °F 85% 30.47 in 10.0 mi West 4.6 mph - N/A   Mostly Cloudy
7:10 AM 8.6 °F - 5.0 °F 85% 30.47 in 10.0 mi Calm Calm - N/A   Partly Cloudy
7:30 AM 6.8 °F - 3.2 °F 85% 30.48 in 6.0 mi Calm Calm - N/A   Clear
7:50 AM 6.8 °F - 1.4 °F 79% 30.48 in 5.0 mi Calm Calm - N/A   Clear
8:10 AM 8.6 °F - 5.0 °F 85% 30.48 in 7.0 mi Calm Calm - N/A   Clear
8:30 AM 10.4 °F - 6.8 °F 85% 30.49 in 5.0 mi Calm Calm - N/A   Clear
8:50 AM 14.0 °F - 10.4 °F 86% 30.48 in 7.0 mi Calm Calm - N/A   Clear
9:10 AM 15.8 °F - 14.0 °F 93% 30.48 in 3.0 mi Calm Calm - N/A   Scattered Clouds
9:30 AM 15.8 °F - 15.8 °F 100% 30.48 in 0.2 mi Calm Calm - N/A   Overcast
9:50 AM 19.4 °F - 15.8 °F 86% 30.48 in 10.0 mi Calm Calm - N/A   Partly Cloudy
10:10 AM 19.4 °F - 15.8 °F 86% 30.48 in 10.0 mi Calm Calm - N/A   Clear
10:30 AM 21.2 °F - 17.6 °F 86% 30.47 in 10.0 mi Calm Calm - N/A   Clear
10:50 AM 23.0 °F - 17.6 °F 80% 30.46 in 10.0 mi Calm Calm - N/A   Clear
11:10 AM 24.8 °F - 17.6 °F 74% 30.45 in 10.0 mi Calm Calm - N/A   Clear
11:30 AM 24.8 °F - 17.6 °F 74% 30.44 in 10.0 mi Calm Calm - N/A   Clear
11:50 AM 26.6 °F - 19.4 °F 74% 30.43 in 10.0 mi Calm Calm - N/A   Mostly Cloudy
12:10 PM 28.4 °F - 15.8 °F 59% 30.43 in 10.0 mi Calm Calm - N/A   Scattered Clouds
12:30 PM 28.4 °F - 19.4 °F 69% 30.41 in 10.0 mi Calm Calm - N/A   Clear
12:50 PM 32.0 °F 28.7 °F 23.0 °F 69% 30.41 in 10.0 mi SE 3.5 mph - N/A   Clear
1:10 PM 32.0 °F - 23.0 °F 69% 30.40 in 10.0 mi Calm Calm - N/A   Clear
1:30 PM 32.0 °F - 23.0 °F 69% 30.39 in 10.0 mi Calm Calm - N/A   Clear
1:50 PM 32.0 °F - 23.0 °F 69% 30.39 in 10.0 mi Calm Calm - N/A   Clear
2:10 PM 33.8 °F - 24.8 °F 70% 30.38 in 10.0 mi Calm Calm - N/A   Clear
2:30 PM 33.8 °F - 24.8 °F 70% 30.38 in 10.0 mi Calm Calm - N/A   Clear
2:50 PM 33.8 °F - 24.8 °F 70% 30.38 in 10.0 mi Calm Calm - N/A   Clear
3:10 PM 32.0 °F - 24.8 °F 75% 30.38 in 10.0 mi Calm Calm - N/A   Scattered Clouds
3:30 PM 32.0 °F - 26.6 °F 80% 30.38 in 10.0 mi Calm Calm - N/A   Mostly Cloudy
3:50 PM 28.4 °F - 26.6 °F 93% 30.37 in 10.0 mi Calm Calm - N/A   Overcast
4:10 PM 28.4 °F 24.6 °F 26.6 °F 93% 30.38 in 7.0 mi WNW 3.5 mph - N/A   Overcast
4:30 PM 28.4 °F - 26.6 °F 93% 30.38 in 3.0 mi Calm Calm - N/A   Overcast
4:50 PM 26.6 °F - 26.6 °F 100% 30.38 in 3.0 mi Calm Calm - N/A   Overcast
5:10 PM 26.6 °F - 24.8 °F 93% 30.38 in 3.0 mi Calm Calm - N/A   Overcast
5:30 PM 26.6 °F 22.6 °F 24.8 °F 93% 30.38 in 2.5 mi WSW 3.5 mph - N/A   Overcast
5:50 PM 24.8 °F - 23.0 °F 93% 30.38 in 2.0 mi Calm Calm - N/A   Overcast
6:10 PM 24.8 °F - 23.0 °F 93% 30.39 in 2.0 mi Calm Calm - N/A   Overcast
6:30 PM 24.8 °F - 23.0 °F 93% 30.39 in 2.0 mi Calm Calm - N/A   Overcast
6:50 PM 23.0 °F - 23.0 °F 100% 30.40 in 2.0 mi Calm Calm - N/A   Overcast
7:10 PM 23.0 °F - 23.0 °F 100% 30.41 in 2.0 mi Calm Calm - N/A   Overcast
7:30 PM 23.0 °F - 23.0 °F 100% 30.41 in 1.8 mi Calm Calm - N/A   Mostly Cloudy
7:50 PM 23.0 °F - 21.2 °F 93% 30.41 in 2.0 mi Calm Calm - N/A   Mostly Cloudy
8:10 PM 23.0 °F - 21.2 °F 93% 30.41 in 2.5 mi Calm Calm - N/A   Overcast
8:30 PM 24.8 °F - 23.0 °F 93% 30.42 in 2.5 mi Calm Calm - N/A   Overcast
8:50 PM 24.8 °F - 23.0 °F 93% 30.42 in 2.5 mi Calm Calm - N/A   Overcast
9:10 PM 24.8 °F - 23.0 °F 93% 30.43 in 2.5 mi Calm Calm - N/A   Overcast
9:30 PM 24.8 °F 20.5 °F 23.0 °F 93% 30.43 in 2.5 mi West 3.5 mph - N/A   Overcast
9:50 PM 23.0 °F - 21.2 °F 93% 30.44 in 2.0 mi Calm Calm - N/A   Overcast
10:10 PM 23.0 °F - 19.4 °F 86% 30.43 in 1.5 mi Calm Calm - N/A   Overcast
10:30 PM 23.0 °F - 19.4 °F 86% 30.44 in 1.2 mi Calm Calm - N/A   Overcast
10:50 PM 23.0 °F - 19.4 °F 86% 30.44 in 2.5 mi Calm Calm - N/A   Overcast
11:10 PM 23.0 °F 18.4 °F 19.4 °F 86% 30.44 in 3.0 mi West 3.5 mph - N/A   Overcast
11:30 PM 23.0 °F - 19.4 °F 86% 30.44 in 3.0 mi Calm Calm - N/A   Overcast
11:50 PM 19.4 °F - 17.6 °F 93% 30.44 in 3.0 mi Calm Calm - N/A   Overcast